Погода в Гнивани

Украина / Винницкая область     49˚05′36″N   28˚20′16″E
темп.,
°C
ветер,
м/с
пор.,
м/с
влажн.,
%
обл.,
%
осадки,
мм/ч
давл.,
гПа
погр.,
м
6 декабря, вс
вс623:00юв71087100 0.0 1028527
02:00−1˚юв61186100 0.0 1029484
05:00−1˚юв7118690 0.0 1029497
08:00−3˚юв5117791 0.0 1029485
11:00юв712590 0.0 1030563
14:00+1˚юв611500 0.0 1029579
17:00−2˚вюв513480 0.0 1029467
20:00−3˚вюв613480 0.0 1029522
7 декабря, пн
пн723:00−4˚юв612490 0.0 1029506
02:00−5˚вюв613580 0.0 1029456
05:00−5˚вюв613660 0.0 1028469
08:00−6˚вюв713670 0.0 1029454
11:00−4˚вюв711590 0.0 1028533
14:00−3˚вюв711600 0.0 1027713
17:00−5˚вюв612671 0.0 1027612
20:00−5˚вюв7138644 0.0 1027553
8 декабря, вт
вт823:00−4˚вюв6127095 0.1 1026514
02:00−3˚вюв7127094 0.1 1026605
05:00−5˚вюв6126941 0.0 1025508
08:00−6˚вюв6117621 0.0 1025535
11:00−4˚вюв697395 0.0 1025609
14:00−3˚вюв687097 0.0 1025594
17:00−4˚в598199 0.0 1025411
20:00−4˚вюв6108699 0.1 1026464
9 декабря, ср
ср923:00−3˚вюв5982100 0.0 1025446
02:00−4˚в598295 0.0 1025379
05:00−5˚в488948 0.0 1025325
08:00−4˚в499173 0.0 1025363
11:00−3˚вюв5780100 0.0 1025340
14:00−2˚вюв5880100 0.0 1023357
17:00−2˚вюв5985100 0.0 1023353
20:00−2˚вюв61186100 0.0 1023378
10 декабря, чт
чт1023:00−1˚вюв61191100 0.0 1022353
02:00−1˚вюв5109599 0.0 1021362
05:00+1˚вюв71396100 0.0 1019445
08:00+1˚вюв71397100 0.0 1018404
11:00+3˚вюв71497100 2.0 1018409
14:00+4˚вюв81597100 3.8 1017456
17:00+4˚вюв91697100 0.6 1016540
20:00+5˚вюв91895100 2.3 1016630